Dewpoint
32 33 34 33 34 36 37 38 40 41 40 41 40 41 41 41 41 41 43 43 44 43 42 43 43 42 43 45 46 46 48 50
32 34 34 33 35 35 36 37 39 38 36 37 38 39 39 40 40 42 42 42 43 42 41 41 42 41 42 43 45 46 46 48
30 32 33 34 34 35 34 35 36 36 35 36 38 39 39 39 39 41 41 42 43 40 40 39 39 39 41 41 42 44 45 47
30 30 32 32 33 34 33 34 35 36 38 36 38 38 38 37 37 37 39 41 41 41 40 39 39 38 38 39 39 41 41 42
29 29 30 30 32 34 34 34 34 34 37 36 37 35 35 36 36 37 37 39 39 39 38 38 37 37 37 38 37 40 41 41
29 28 28 28 31 33 35 34 33 34 35 36 35 36 35 35 36 37 38 38 38 37 37 37 36 36 36 37 37 37 39 41
28 27 27 28 31 33 34 33 32 34 35 35 35 35 35 34 34 34 34 35 36 36 35 36 36 35 34 34 35 36 37 39
27 25 25 28 30 32 30 31 31 33 34 35 35 34 34 33 33 33 33 33 33 34 34 34 34 34 34 34 34 35 36 37
26 26 27 28 29 31 32 30 31 32 33 34 34 34 32 32 32 32 32 32 32 33 33 32 32 33 34 34 33 35 36 35
29 29 29 30 30 31 32 31 30 32 32 34 33 33 33 32 33 33 32 32 30 32 32 31 32 33 32 33 32 33 34 34
30 31 31 30 31 32 32 31 30 31 31 32 31 31 32 32 32 32 31 32 32 31 31 30 31 31 31 31 32 32 33 33
32 32 33 31 31 31 31 30 30 30 30 31 32 31 30 31 31 30 30 31 30 29 29 29 29 30 31 30 30 30 31 31
32 31 32 32 32 31 30 30 30 30 30 30 31 30 30 30 30 30 30 29 29 28 28 28 28 28 29 29 29 29 29 30
33 32 31 30 31 31 31 30 30 31 30 30 30 30 29 29 29 30 29 28 28 27 27 27 28 29 27 28 28 28 28 30
32 31 31 31 30 31 30 31 33 32 29 30 31 30 29 29 28 29 29 28 28 28 29 28 29 28 27 27 28 28 27 27
32 33 31 30 31 31 28 29 28 29 31 28 28 26 28 27 27 27 29 28 28 27 28 27 28 28 26 28 28 27 27 26
29 28 27 24 25 26 24 25 26 26 25 25 25 22 21 23 24 25 24 25 26 27 27 30 27 28 22 23 28 30 28 26
27 25 23 23 23 23 23 23 24 23 22 21 21 19 19 20 18 18 19 21 22 24 30 30 30 25 22 21 23 32 30 28
25 23 23 23 23 22 22 21 22 21 21 19 19 18 18 18 17 17 18 18 17 17 19 20 21 22 21 21 21 33 30 28
Lifted_Index
10 10 11 11 12 12 13 13 14 14 14 13 13 13 13 13 14 14 15 15 15 14 14 14 13 13 12 12 12 12 11 10
10 10 11 11 12 12 13 13 14 14 14 14 14 13 13 13 14 14 15 15 15 15 14 14 14 13 13 13 12 12 11 11
10 11 11 12 12 13 13 14 14 14 14 14 14 14 14 14 14 14 15 15 15 15 15 15 15 14 14 14 13 12 12 12
10 11 11 12 12 13 14 14 14 15 15 14 14 14 13 14 14 14 14 15 16 16 15 15 15 15 15 15 14 14 13 12
10 11 11 12 13 14 14 15 15 15 15 14 14 13 13 14 14 14 14 15 16 16 16 15 16 16 16 15 15 15 14 13
10 11 11 12 13 14 14 14 14 15 15 14 14 13 14 14 13 13 14 14 16 16 16 16 16 16 16 16 15 15 15 14
10 10 11 12 13 13 13 14 14 14 15 15 14 14 14 14 13 13 13 14 15 16 16 16 16 16 17 16 16 15 14 14
10 10 11 11 12 12 13 13 14 14 15 15 15 15 14 14 14 14 14 14 15 16 16 16 16 16 16 16 15 14 13 13
9 10 10 11 11 12 12 13 13 14 14 15 15 15 15 15 15 15 15 15 15 16 16 16 16 15 15 14 13 12 13 13
9 9 10 10 11 12 12 13 13 13 14 15 15 16 16 16 16 16 16 16 16 16 15 15 15 15 14 13 12 12 12 13
8 9 10 10 11 12 12 13 13 13 14 15 15 15 16 16 16 16 16 16 15 15 14 14 14 14 14 12 12 12 12 12
7 8 9 10 11 11 12 12 12 12 13 14 15 15 15 15 16 16 16 15 15 14 14 14 14 14 13 12 12 12 12 12
6 7 8 9 10 11 11 11 12 12 13 14 14 14 14 15 15 15 15 15 15 14 14 13 13 13 13 12 12 12 12 13
6 7 8 9 10 10 10 11 12 13 13 13 13 14 14 14 15 15 15 15 15 14 14 13 13 13 14 13 13 13 13 14
6 7 8 9 9 9 10 12 13 14 14 14 14 14 14 14 15 15 15 15 15 14 14 14 14 14 14 14 14 14 14 15
6 7 8 8 9 10 11 13 14 15 15 15 15 15 15 15 14 14 14 14 15 15 15 15 15 14 14 15 15 15 14 15
6 7 8 8 9 11 12 14 15 15 15 15 15 15 15 14 14 14 14 14 15 15 15 15 15 15 15 16 16 16 16 16
6 7 8 9 11 12 14 15 15 15 15 15 15 15 14 14 14 14 14 14 15 15 15 15 16 16 16 17 17 18 17 17
6 7 8 10 12 13 15 15 15 15 15 15 15 15 14 14 14 14 14 14 15 15 15 16 16 17 17 17 18 18 18 19